Time,TemperatureF,DewpointF,PressureIn,WindDirection,WindDirectionDegrees,WindSpeedMPH,WindSpeedGustMPH,Humidity,HourlyPrecipIn,Conditions,Clouds,dailyrainin,SoftwareType,DateUTC
2013-03-18 00:00:00,22.3,5.0,30.33,ENE,65,2.0,-999.0,46,-99.99,,,-99.99,custom,2013-03-18 04:00:00,
2013-03-18 00:01:00,22.6,6.3,30.34,ENE,58,1.0,-999.0,48,-99.99,,,-99.99,custom,2013-03-18 04:01:00,
2013-03-18 00:06:00,22.1,6.6,30.33,ENE,65,2.0,-999.0,50,-99.99,,,-99.99,custom,2013-03-18 04:06:00,
2013-03-18 00:11:00,22.1,4.6,30.33,NE,56,4.0,-999.0,46,-99.99,,,-99.99,custom,2013-03-18 04:11:00,
2013-03-18 00:16:00,22.1,6.3,30.34,NE,41,2.0,-999.0,49,-99.99,,,-99.99,custom,2013-03-18 04:16:00,
2013-03-18 00:21:00,22.1,5.7,30.34,North,7,2.0,-999.0,48,-99.99,,,-99.99,custom,2013-03-18 04:21:00,
2013-03-18 00:26:00,21.9,6.4,30.35,East,83,2.0,-999.0,50,-99.99,,,-99.99,custom,2013-03-18 04:26:00,
2013-03-18 00:31:00,21.9,4.5,30.35,North,9,6.0,-999.0,45,-99.99,,,-99.99,custom,2013-03-18 04:31:00,
2013-03-18 00:36:00,21.7,5.4,30.35,NNW,336,6.0,-999.0,48,-99.99,,,-99.99,custom,2013-03-18 04:36:00,
2013-03-18 00:41:00,21.4,4.3,30.34,NNE,25,4.0,-999.0,46,-99.99,,,-99.99,custom,2013-03-18 04:41:00,
2013-03-18 00:46:00,20.8,3.6,30.35,ENE,58,2.0,-999.0,46,-99.99,,,-99.99,custom,2013-03-18 04:46:00,
2013-03-18 00:51:00,20.3,2.7,30.35,North,4,2.0,-999.0,45,-99.99,,,-99.99,custom,2013-03-18 04:51:00,
2013-03-18 00:56:00,20.3,3.6,30.38,North,349,2.0,-999.0,47,-99.99,,,-99.99,custom,2013-03-18 04:56:00,
2013-03-18 01:01:00,20.7,3.9,30.36,ENE,63,4.0,-999.0,47,-99.99,,,-99.99,custom,2013-03-18 05:01:00,
2013-03-18 01:06:00,20.7,5.0,30.38,ENE,72,1.0,-999.0,50,-99.99,,,-99.99,custom,2013-03-18 05:06:00,
2013-03-18 01:11:00,20.3,3.9,30.38,NNE,23,4.0,-999.0,48,-99.99,,,-99.99,custom,2013-03-18 05:11:00,
2013-03-18 01:16:00,20.3,4.3,30.35,ENE,67,1.0,-999.0,48,-99.99,,,-99.99,custom,2013-03-18 05:16:00,
2013-03-18 01:21:00,19.8,3.2,30.35,NE,46,2.0,-999.0,47,-99.99,,,-99.99,custom,2013-03-18 05:21:00,
2013-03-18 01:26:00,19.8,3.9,30.34,NE,40,1.0,-999.0,49,-99.99,,,-99.99,custom,2013-03-18 05:26:00,
2013-03-18 01:32:00,19.6,1.9,30.36,North,352,5.0,-999.0,45,-99.99,,,-99.99,custom,2013-03-18 05:32:00,
2013-03-18 01:37:00,19.8,3.9,30.40,ENE,58,2.0,-999.0,49,-99.99,,,-99.99,custom,2013-03-18 05:37:00,
2013-03-18 01:42:00,19.6,3.7,30.40,ESE,113,2.0,-999.0,49,-99.99,,,-99.99,custom,2013-03-18 05:42:00,
2013-03-18 01:46:00,19.4,3.2,30.38,NNE,24,2.0,-999.0,48,-99.99,,,-99.99,custom,2013-03-18 05:46:00,
2013-03-18 01:51:00,19.6,5.7,30.42,ENE,66,1.0,-999.0,53,-99.99,,,-99.99,custom,2013-03-18 05:51:00,
2013-03-18 01:57:00,19.2,5.2,30.40,NE,36,1.0,-999.0,53,-99.99,,,-99.99,custom,2013-03-18 05:57:00,
2013-03-18 02:02:00,19.2,4.1,30.42,East,82,1.0,-999.0,50,-99.99,,,-99.99,custom,2013-03-18 06:02:00,
2013-03-18 02:07:00,18.9,2.3,30.41,NW,324,2.0,-999.0,47,-99.99,,,-99.99,custom,2013-03-18 06:07:00,
2013-03-18 02:12:00,19.4,5.7,30.40,NE,49,0.0,-999.0,54,-99.99,,,-99.99,custom,2013-03-18 06:12:00,
2013-03-18 02:17:00,18.9,3.4,30.42,NW,313,2.0,-999.0,49,-99.99,,,-99.99,custom,2013-03-18 06:17:00,
2013-03-18 02:22:00,18.9,3.7,30.40,ENE,78,1.0,-999.0,50,-99.99,,,-99.99,custom,2013-03-18 06:22:00,
2013-03-18 02:27:00,19.2,3.9,30.42,North,356,2.0,-999.0,50,-99.99,,,-99.99,custom,2013-03-18 06:27:00,
2013-03-18 02:32:00,18.9,5.5,30.41,NNW,331,0.0,-999.0,55,-99.99,,,-99.99,custom,2013-03-18 06:32:00,
2013-03-18 02:37:00,18.5,3.6,30.39,North,353,1.0,-999.0,51,-99.99,,,-99.99,custom,2013-03-18 06:37:00,
2013-03-18 02:42:00,18.7,3.4,30.40,South,189,1.0,-999.0,50,-99.99,,,-99.99,custom,2013-03-18 06:42:00,
2013-03-18 02:47:00,18.7,2.7,30.37,NNW,335,1.0,-999.0,48,-99.99,,,-99.99,custom,2013-03-18 06:47:00,
2013-03-18 02:52:00,18.9,3.2,30.42,East,88,2.0,-999.0,49,-99.99,,,-99.99,custom,2013-03-18 06:52:00,
2013-03-18 02:57:00,18.3,1.6,30.40,NNW,335,4.0,-999.0,46,-99.99,,,-99.99,custom,2013-03-18 06:57:00,
2013-03-18 03:02:00,18.3,4.3,30.40,ENE,59,2.0,-999.0,53,-99.99,,,-99.99,custom,2013-03-18 07:02:00,
2013-03-18 03:07:00,18.0,3.0,30.42,East,90,2.0,-999.0,51,-99.99,,,-99.99,custom,2013-03-18 07:07:00,
2013-03-18 03:12:00,18.5,2.3,30.43,NNW,337,3.0,-999.0,48,-99.99,,,-99.99,custom,2013-03-18 07:12:00,
2013-03-18 03:17:00,17.6,2.3,30.41,NNW,327,0.0,-999.0,50,-99.99,,,-99.99,custom,2013-03-18 07:17:00,
2013-03-18 03:22:00,17.6,1.8,30.43,North,357,1.0,-999.0,49,-99.99,,,-99.99,custom,2013-03-18 07:22:00,
2013-03-18 03:27:00,17.8,3.7,30.45,NNE,17,1.0,-999.0,53,-99.99,,,-99.99,custom,2013-03-18 07:27:00,
2013-03-18 03:32:00,17.6,3.6,30.44,SE,139,1.0,-999.0,53,-99.99,,,-99.99,custom,2013-03-18 07:32:00,
2013-03-18 03:37:00,17.8,3.2,30.41,NNW,329,4.0,-999.0,51,-99.99,,,-99.99,custom,2013-03-18 07:37:00,
2013-03-18 03:42:00,17.8,3.0,30.41,East,95,2.0,-999.0,51,-99.99,,,-99.99,custom,2013-03-18 07:42:00,
2013-03-18 03:47:00,18.0,3.4,30.42,East,83,2.0,-999.0,51,-99.99,,,-99.99,custom,2013-03-18 07:47:00,
2013-03-18 03:52:00,17.6,3.4,30.42,East,99,1.0,-999.0,52,-99.99,,,-99.99,custom,2013-03-18 07:52:00,
2013-03-18 03:57:00,17.8,2.8,30.41,ENE,68,2.0,-999.0,50,-99.99,,,-99.99,custom,2013-03-18 07:57:00,
2013-03-18 04:02:00,18.3,3.2,30.42,ESE,105,2.0,-999.0,50,-99.99,,,-99.99,custom,2013-03-18 08:02:00,
2013-03-18 04:07:00,17.6,5.2,30.42,South,173,0.0,-999.0,57,-99.99,,,-99.99,custom,2013-03-18 08:07:00,
2013-03-18 04:12:00,17.4,2.8,30.41,SSE,156,1.0,-999.0,51,-99.99,,,-99.99,custom,2013-03-18 08:12:00,
2013-03-18 04:17:00,17.8,1.0,30.44,East,95,2.0,-999.0,46,-99.99,,,-99.99,custom,2013-03-18 08:17:00,
2013-03-18 04:22:00,17.6,4.8,30.44,NW,322,1.0,-999.0,56,-99.99,,,-99.99,custom,2013-03-18 08:22:00,
2013-03-18 04:27:00,16.9,5.7,30.44,East,91,0.0,-999.0,60,-99.99,,,-99.99,custom,2013-03-18 08:27:00,
2013-03-18 04:32:00,17.4,2.3,30.44,ESE,108,1.0,-999.0,50,-99.99,,,-99.99,custom,2013-03-18 08:32:00,
2013-03-18 04:37:00,16.7,5.2,30.42,North,353,0.0,-999.0,59,-99.99,,,-99.99,custom,2013-03-18 08:37:00,
2013-03-18 04:42:00,16.7,3.7,30.45,ESE,103,2.0,-999.0,55,-99.99,,,-99.99,custom,2013-03-18 08:42:00,
2013-03-18 04:47:00,17.6,3.6,30.43,East,95,1.0,-999.0,53,-99.99,,,-99.99,custom,2013-03-18 08:47:00,
2013-03-18 04:52:00,16.2,3.2,30.42,NNW,331,2.0,-999.0,55,-99.99,,,-99.99,custom,2013-03-18 08:52:00,
2013-03-18 04:57:00,16.5,3.4,30.43,North,355,2.0,-999.0,55,-99.99,,,-99.99,custom,2013-03-18 08:57:00,
2013-03-18 05:02:00,16.5,4.3,30.44,North,357,1.0,-999.0,57,-99.99,,,-99.99,custom,2013-03-18 09:02:00,
2013-03-18 05:07:00,16.7,4.3,30.44,East,95,1.0,-999.0,56,-99.99,,,-99.99,custom,2013-03-18 09:07:00,
2013-03-18 05:12:00,16.5,6.6,30.43,East,84,0.0,-999.0,64,-99.99,,,-99.99,custom,2013-03-18 09:12:00,
2013-03-18 05:17:00,16.5,2.8,30.44,East,95,1.0,-999.0,53,-99.99,,,-99.99,custom,2013-03-18 09:17:00,
2013-03-18 05:22:00,17.1,4.3,30.44,East,83,0.0,-999.0,56,-99.99,,,-99.99,custom,2013-03-18 09:22:00,
2013-03-18 05:27:00,16.7,4.5,30.46,East,83,1.0,-999.0,57,-99.99,,,-99.99,custom,2013-03-18 09:27:00,
2013-03-18 05:32:00,16.5,4.3,30.45,ESE,111,1.0,-999.0,57,-99.99,,,-99.99,custom,2013-03-18 09:32:00,
2013-03-18 05:37:00,16.7,2.3,30.43,ESE,109,2.0,-999.0,52,-99.99,,,-99.99,custom,2013-03-18 09:37:00,
2013-03-18 05:42:00,16.2,6.3,30.42,SSE,155,0.0,-999.0,63,-99.99,,,-99.99,custom,2013-03-18 09:42:00,
2013-03-18 05:47:00,15.8,2.7,30.43,SE,128,1.0,-999.0,55,-99.99,,,-99.99,custom,2013-03-18 09:47:00,
2013-03-18 05:52:00,16.2,4.5,30.45,East,83,0.0,-999.0,59,-99.99,,,-99.99,custom,2013-03-18 09:52:00,
2013-03-18 05:57:00,15.4,3.9,30.44,ESE,110,1.0,-999.0,59,-99.99,,,-99.99,custom,2013-03-18 09:57:00,
2013-03-18 06:02:00,15.3,6.4,30.45,NW,304,0.0,-999.0,67,-99.99,,,-99.99,custom,2013-03-18 10:02:00,
2013-03-18 12:06:00,34.0,6.1,30.40,SSE,151,2.0,-999.0,30,-99.99,,,-99.99,custom,2013-03-18 16:06:00,
2013-03-18 12:11:00,33.6,4.8,30.44,SSE,163,2.0,-999.0,28,-99.99,,,-99.99,custom,2013-03-18 16:11:00,
2013-03-18 12:16:00,32.9,4.5,30.41,NW,309,1.0,-999.0,29,-99.99,,,-99.99,custom,2013-03-18 16:16:00,
2013-03-18 12:21:00,33.6,6.6,30.42,South,186,4.0,-999.0,31,-99.99,,,-99.99,custom,2013-03-18 16:21:00,
2013-03-18 12:26:00,33.3,3.7,30.41,SSE,167,2.0,-999.0,27,-99.99,,,-99.99,custom,2013-03-18 16:26:00,
2013-03-18 12:31:00,33.8,5.7,30.41,SSW,210,2.0,-999.0,29,-99.99,,,-99.99,custom,2013-03-18 16:31:00,
2013-03-18 12:36:00,33.8,5.7,30.40,East,96,1.0,-999.0,29,-99.99,,,-99.99,custom,2013-03-18 16:36:00,
2013-03-18 12:41:00,34.0,7.2,30.40,ESE,114,0.0,-999.0,31,-99.99,,,-99.99,custom,2013-03-18 16:41:00,
2013-03-18 12:46:00,34.3,4.5,30.39,South,171,1.0,-999.0,27,-99.99,,,-99.99,custom,2013-03-18 16:46:00,
2013-03-18 12:51:00,34.5,4.3,30.39,SSE,167,3.0,-999.0,27,-99.99,,,-99.99,custom,2013-03-18 16:51:00,
2013-03-18 12:56:00,35.2,5.9,30.40,ENE,64,1.0,-999.0,28,-99.99,,,-99.99,custom,2013-03-18 16:56:00,
2013-03-18 13:01:00,36.5,8.4,30.39,SSE,158,2.0,-999.0,30,-99.99,,,-99.99,custom,2013-03-18 17:01:00,
2013-03-18 13:06:00,36.9,6.1,30.37,NNE,18,1.0,-999.0,27,-99.99,,,-99.99,custom,2013-03-18 17:06:00,
2013-03-18 13:11:00,36.5,3.9,30.39,SSE,164,3.0,-999.0,24,-99.99,,,-99.99,custom,2013-03-18 17:11:00,
2013-03-18 13:16:00,38.5,6.6,30.41,SE,144,1.0,-999.0,25,-99.99,,,-99.99,custom,2013-03-18 17:16:00,
2013-03-18 13:22:00,36.5,4.6,30.39,SSE,151,1.0,-999.0,25,-99.99,,,-99.99,custom,2013-03-18 17:22:00,
2013-03-18 13:27:00,36.0,2.8,30.40,SSE,160,2.0,-999.0,24,-99.99,,,-99.99,custom,2013-03-18 17:27:00,
2013-03-18 13:32:00,38.5,6.1,30.40,SE,142,2.0,-999.0,25,-99.99,,,-99.99,custom,2013-03-18 17:32:00,
2013-03-18 13:37:00,39.7,6.3,30.38,ESE,111,2.0,-999.0,24,-99.99,,,-99.99,custom,2013-03-18 17:37:00,
2013-03-18 13:42:00,39.9,6.4,30.40,ENE,75,2.0,-999.0,24,-99.99,,,-99.99,custom,2013-03-18 17:42:00,
2013-03-18 13:47:00,37.0,5.9,30.37,South,173,2.0,-999.0,26,-99.99,,,-99.99,custom,2013-03-18 17:47:00,
2013-03-18 13:52:00,38.1,4.6,30.36,SSE,158,3.0,-999.0,23,-99.99,,,-99.99,custom,2013-03-18 17:52:00,
2013-03-18 13:57:00,38.7,6.3,30.36,SSW,197,1.0,-999.0,25,-99.99,,,-99.99,custom,2013-03-18 17:57:00,
2013-03-18 14:02:00,37.8,4.8,30.37,East,80,1.0,-999.0,24,-99.99,,,-99.99,custom,2013-03-18 18:02:00,
2013-03-18 14:07:00,38.7,5.9,30.35,SSE,159,2.0,-999.0,24,-99.99,,,-99.99,custom,2013-03-18 18:07:00,
2013-03-18 14:12:00,39.2,6.6,30.37,SSW,208,3.0,-999.0,25,-99.99,,,-99.99,custom,2013-03-18 18:12:00,
2013-03-18 14:17:00,39.7,4.5,30.36,SSE,161,2.0,-999.0,22,-99.99,,,-99.99,custom,2013-03-18 18:17:00,
2013-03-18 14:22:00,40.6,4.3,30.39,ESE,115,5.0,-999.0,21,-99.99,,,-99.99,custom,2013-03-18 18:22:00,
2013-03-18 14:27:00,40.8,4.1,30.38,East,88,4.0,-999.0,21,-99.99,,,-99.99,custom,2013-03-18 18:27:00,
2013-03-18 14:32:00,38.3,5.7,30.36,South,175,3.0,-999.0,25,-99.99,,,-99.99,custom,2013-03-18 18:32:00,
2013-03-18 14:37:00,38.8,5.0,30.34,SSE,157,1.0,-999.0,23,-99.99,,,-99.99,custom,2013-03-18 18:37:00,
2013-03-18 14:42:00,39.6,4.3,30.37,SSE,161,2.0,-999.0,22,-99.99,,,-99.99,custom,2013-03-18 18:42:00,
2013-03-18 14:47:00,41.7,4.1,30.36,ESE,119,6.0,-999.0,20,-99.99,,,-99.99,custom,2013-03-18 18:47:00,
2013-03-18 14:52:00,39.9,5.0,30.34,SSW,205,3.0,-999.0,22,-99.99,,,-99.99,custom,2013-03-18 18:52:00,
2013-03-18 14:57:00,39.0,3.0,30.36,South,183,2.0,-999.0,21,-99.99,,,-99.99,custom,2013-03-18 18:57:00,
2013-03-18 15:02:00,39.4,4.8,30.37,ESE,109,5.0,-999.0,23,-99.99,,,-99.99,custom,2013-03-18 19:02:00,
2013-03-18 15:07:00,39.4,5.2,30.30,South,172,5.0,-999.0,23,-99.99,,,-99.99,custom,2013-03-18 19:07:00,
2013-03-18 15:12:00,38.7,4.8,30.37,SSW,194,7.0,-999.0,23,-99.99,,,-99.99,custom,2013-03-18 19:12:00,
2013-03-18 15:17:00,37.0,3.9,30.35,SSW,211,2.0,-999.0,24,-99.99,,,-99.99,custom,2013-03-18 19:17:00,
2013-03-18 15:22:00,37.4,4.6,30.34,South,180,1.0,-999.0,24,-99.99,,,-99.99,custom,2013-03-18 19:22:00,
2013-03-18 15:27:00,38.7,3.2,30.32,SE,138,3.0,-999.0,22,-99.99,,,-99.99,custom,2013-03-18 19:27:00,
2013-03-18 15:32:00,38.7,6.3,30.35,SE,143,1.0,-999.0,25,-99.99,,,-99.99,custom,2013-03-18 19:32:00,
2013-03-18 15:37:00,39.2,6.3,30.29,ESE,116,5.0,-999.0,24,-99.99,,,-99.99,custom,2013-03-18 19:37:00,
2013-03-18 15:42:00,38.8,5.7,30.34,South,178,3.0,-999.0,24,-99.99,,,-99.99,custom,2013-03-18 19:42:00,
2013-03-18 15:47:00,37.9,4.8,30.34,South,172,5.0,-999.0,24,-99.99,,,-99.99,custom,2013-03-18 19:47:00,
2013-03-18 15:52:00,38.5,7.0,30.33,SE,146,1.0,-999.0,26,-99.99,,,-99.99,custom,2013-03-18 19:52:00,
2013-03-18 15:57:00,37.8,6.8,30.31,SSW,197,4.0,-999.0,26,-99.99,,,-99.99,custom,2013-03-18 19:57:00,
2013-03-18 16:02:00,36.7,5.7,30.29,South,169,1.0,-999.0,26,-99.99,,,-99.99,custom,2013-03-18 20:02:00,
2013-03-18 16:07:00,38.8,6.8,30.32,SE,126,2.0,-999.0,25,-99.99,,,-99.99,custom,2013-03-18 20:07:00,
2013-03-18 16:12:00,37.8,7.2,30.32,SSW,209,2.0,-999.0,27,-99.99,,,-99.99,custom,2013-03-18 20:12:00,
2013-03-18 16:17:00,37.2,5.0,30.32,SSE,165,1.0,-999.0,25,-99.99,,,-99.99,custom,2013-03-18 20:17:00,
2013-03-18 16:22:00,36.7,3.9,30.33,South,182,4.0,-999.0,24,-99.99,,,-99.99,custom,2013-03-18 20:22:00,
2013-03-18 16:27:00,38.3,4.1,30.33,ESE,118,4.0,-999.0,23,-99.99,,,-99.99,custom,2013-03-18 20:27:00,
2013-03-18 16:32:00,38.3,4.3,30.32,ESE,116,4.0,-999.0,23,-99.99,,,-99.99,custom,2013-03-18 20:32:00,
2013-03-18 16:37:00,38.5,3.9,30.31,ESE,114,4.0,-999.0,22,-99.99,,,-99.99,custom,2013-03-18 20:37:00,
2013-03-18 16:42:00,37.4,6.3,30.32,SSE,154,2.0,-999.0,26,-99.99,,,-99.99,custom,2013-03-18 20:42:00,
2013-03-18 16:47:00,38.1,5.5,30.33,ESE,120,4.0,-999.0,25,-99.99,,,-99.99,custom,2013-03-18 20:47:00,
2013-03-18 16:53:00,38.1,5.2,30.33,ESE,112,4.0,-999.0,24,-99.99,,,-99.99,custom,2013-03-18 20:53:00,
2013-03-18 16:58:00,38.1,5.5,30.34,ESE,103,5.0,-999.0,25,-99.99,,,-99.99,custom,2013-03-18 20:58:00,
2013-03-18 17:02:00,37.6,7.9,30.30,ESE,111,2.0,-999.0,28,-99.99,,,-99.99,custom,2013-03-18 21:02:00,
2013-03-18 17:08:00,37.9,4.1,30.32,East,93,5.0,-999.0,23,-99.99,,,-99.99,custom,2013-03-18 21:08:00,
2013-03-18 17:13:00,38.1,6.1,30.31,ESE,113,3.0,-999.0,25,-99.99,,,-99.99,custom,2013-03-18 21:13:00,
2013-03-18 17:18:00,37.9,5.4,30.29,SE,128,3.0,-999.0,24,-99.99,,,-99.99,custom,2013-03-18 21:18:00,
2013-03-18 17:22:00,37.9,5.2,30.31,East,101,2.0,-999.0,24,-99.99,,,-99.99,custom,2013-03-18 21:22:00,
2013-03-18 17:27:00,37.6,5.4,30.30,SSE,148,3.0,-999.0,25,-99.99,,,-99.99,custom,2013-03-18 21:27:00,
2013-03-18 17:32:00,37.8,8.4,30.34,ESE,114,3.0,-999.0,28,-99.99,,,-99.99,custom,2013-03-18 21:32:00,
2013-03-18 17:37:00,37.6,7.2,30.32,SE,136,2.0,-999.0,27,-99.99,,,-99.99,custom,2013-03-18 21:37:00,
2013-03-18 17:43:00,36.1,6.1,30.31,South,170,3.0,-999.0,27,-99.99,,,-99.99,custom,2013-03-18 21:43:00,
2013-03-18 17:47:00,37.2,6.8,30.33,ESE,114,2.0,-999.0,27,-99.99,,,-99.99,custom,2013-03-18 21:47:00,
2013-03-18 17:52:00,36.1,7.3,30.29,South,170,2.0,-999.0,29,-99.99,,,-99.99,custom,2013-03-18 21:52:00,
2013-03-18 17:58:00,36.0,5.4,30.31,ESE,109,3.0,-999.0,27,-99.99,,,-99.99,custom,2013-03-18 21:58:00,
2013-03-18 18:53:00,33.1,19.9,30.32,ESE,121,7.0,-999.0,58,-99.99,,,-99.99,custom,2013-03-18 22:53:00,
2013-03-18 18:58:00,33.1,21.2,30.29,ESE,104,3.0,-999.0,60,-99.99,,,-99.99,custom,2013-03-18 22:58:00,
2013-03-18 19:03:00,32.7,21.0,30.32,SE,125,4.0,-999.0,61,-99.99,,,-99.99,custom,2013-03-18 23:03:00,
2013-03-18 19:08:00,32.4,21.4,30.32,East,79,5.0,-999.0,63,-99.99,,,-99.99,custom,2013-03-18 23:08:00,
2013-03-18 19:13:00,32.4,21.7,30.30,ESE,112,4.0,-999.0,64,-99.99,,,-99.99,custom,2013-03-18 23:13:00,
2013-03-18 19:18:00,32.2,21.2,30.30,ESE,116,7.0,-999.0,63,-99.99,,,-99.99,custom,2013-03-18 23:18:00,
2013-03-18 19:23:00,32.0,22.1,30.27,SE,134,2.0,-999.0,66,-99.99,,,-99.99,custom,2013-03-18 23:23:00,
2013-03-18 19:28:00,32.0,21.2,30.30,ESE,114,6.0,-999.0,63,-99.99,,,-99.99,custom,2013-03-18 23:28:00,
2013-03-18 19:33:00,32.2,21.9,30.31,SE,128,3.0,-999.0,65,-99.99,,,-99.99,custom,2013-03-18 23:33:00,
2013-03-18 19:38:00,32.2,22.1,30.29,SE,137,4.0,-999.0,65,-99.99,,,-99.99,custom,2013-03-18 23:38:00,
2013-03-18 19:43:00,32.4,22.3,30.30,East,96,2.0,-999.0,65,-99.99,,,-99.99,custom,2013-03-18 23:43:00,
2013-03-18 19:48:00,32.4,20.7,30.29,ESE,106,4.0,-999.0,61,-99.99,,,-99.99,custom,2013-03-18 23:48:00,
2013-03-18 19:53:00,32.4,20.8,30.29,ESE,121,4.0,-999.0,61,-99.99,,,-99.99,custom,2013-03-18 23:53:00,
2013-03-18 19:58:00,32.7,21.0,30.29,SE,140,4.0,-999.0,61,-99.99,,,-99.99,custom,2013-03-18 23:58:00,
2013-03-18 20:03:00,32.4,21.9,30.24,ESE,123,2.0,-999.0,64,-99.99,,,-99.99,custom,2013-03-19 00:03:00,
2013-03-18 20:08:00,33.1,22.5,30.30,ESE,114,2.0,-999.0,64,-99.99,,,-99.99,custom,2013-03-19 00:08:00,
2013-03-18 20:13:00,33.1,21.9,30.29,ESE,118,3.0,-999.0,62,-99.99,,,-99.99,custom,2013-03-19 00:13:00,
2013-03-18 20:18:00,33.1,21.9,30.27,ESE,108,2.0,-999.0,62,-99.99,,,-99.99,custom,2013-03-19 00:18:00,
2013-03-18 20:23:00,33.1,21.7,30.27,SE,135,2.0,-999.0,62,-99.99,,,-99.99,custom,2013-03-19 00:23:00,
2013-03-18 20:28:00,33.1,22.1,30.27,SE,127,1.0,-999.0,63,-99.99,,,-99.99,custom,2013-03-19 00:28:00,
2013-03-18 20:33:00,33.1,21.2,30.25,SE,129,3.0,-999.0,60,-99.99,,,-99.99,custom,2013-03-19 00:33:00,
2013-03-18 20:38:00,33.4,22.5,30.26,SE,129,3.0,-999.0,63,-99.99,,,-99.99,custom,2013-03-19 00:38:00,
2013-03-18 20:43:00,33.4,21.9,30.30,ESE,113,2.0,-999.0,62,-99.99,,,-99.99,custom,2013-03-19 00:43:00,
2013-03-18 20:48:00,33.4,20.7,30.28,ESE,112,6.0,-999.0,58,-99.99,,,-99.99,custom,2013-03-19 00:48:00,
2013-03-18 20:53:00,33.4,21.9,30.32,ESE,118,2.0,-999.0,61,-99.99,,,-99.99,custom,2013-03-19 00:53:00,
2013-03-18 20:58:00,33.4,21.6,30.31,ESE,117,3.0,-999.0,61,-99.99,,,-99.99,custom,2013-03-19 00:58:00,
2013-03-18 21:03:00,33.1,21.4,30.29,SE,132,3.0,-999.0,61,-99.99,,,-99.99,custom,2013-03-19 01:03:00,
2013-03-18 21:08:00,33.3,21.7,30.28,ESE,122,4.0,-999.0,61,-99.99,,,-99.99,custom,2013-03-19 01:08:00,
2013-03-18 21:13:00,33.1,21.6,30.28,SE,136,3.0,-999.0,62,-99.99,,,-99.99,custom,2013-03-19 01:13:00,
2013-03-18 21:18:00,33.1,21.4,30.27,SE,137,3.0,-999.0,61,-99.99,,,-99.99,custom,2013-03-19 01:18:00,
2013-03-18 21:23:00,32.9,22.3,30.28,SE,137,3.0,-999.0,64,-99.99,,,-99.99,custom,2013-03-19 01:23:00,
2013-03-18 21:28:00,32.4,20.5,30.28,SSE,153,3.0,-999.0,61,-99.99,,,-99.99,custom,2013-03-19 01:28:00,
2013-03-18 21:33:00,31.6,19.9,30.28,ESE,123,4.0,-999.0,61,-99.99,,,-99.99,custom,2013-03-19 01:33:00,
2013-03-18 21:39:00,31.1,19.6,30.28,South,179,6.0,-999.0,61,-99.99,,,-99.99,custom,2013-03-19 01:39:00,
2013-03-18 21:44:00,30.4,19.9,30.24,South,174,8.0,-999.0,64,-99.99,,,-99.99,custom,2013-03-19 01:44:00,
2013-03-18 21:48:00,30.4,23.9,30.28,SSE,153,4.0,-999.0,76,-99.99,,,-99.99,custom,2013-03-19 01:48:00,
2013-03-18 21:54:00,30.0,25.0,30.29,SSE,161,4.0,-999.0,80,-99.99,,,-99.99,custom,2013-03-19 01:54:00,
2013-03-18 21:59:00,30.0,25.0,30.28,SSE,156,4.0,-999.0,81,-99.99,,,-99.99,custom,2013-03-19 01:59:00,
2013-03-18 22:04:00,29.3,24.3,30.29,South,178,5.0,-999.0,80,-99.99,,,-99.99,custom,2013-03-19 02:04:00,
2013-03-18 22:09:00,28.8,24.3,30.28,SSE,163,6.0,-999.0,82,-99.99,,,-99.99,custom,2013-03-19 02:09:00,
2013-03-18 22:14:00,27.9,25.3,30.29,SSW,196,8.0,-999.0,89,-99.99,,,-99.99,custom,2013-03-19 02:14:00,
2013-03-18 22:19:00,27.3,26.2,30.29,South,182,4.0,-999.0,95,-99.99,,,-99.99,custom,2013-03-19 02:19:00,
2013-03-18 22:24:00,27.3,26.6,30.28,SSW,202,6.0,-999.0,96,-99.99,,,-99.99,custom,2013-03-19 02:24:00,
2013-03-18 22:29:00,27.9,27.7,30.29,SSE,158,2.0,-999.0,99,-99.99,,,-99.99,custom,2013-03-19 02:29:00,
2013-03-18 22:34:00,28.0,27.3,30.29,SSE,160,4.0,-999.0,97,-99.99,,,-99.99,custom,2013-03-19 02:34:00,
2013-03-18 22:39:00,28.0,27.5,30.28,SSE,158,2.0,-999.0,97,-99.99,,,-99.99,custom,2013-03-19 02:39:00,
2013-03-18 22:44:00,28.4,27.9,30.27,ESE,122,3.0,-999.0,97,-99.99,,,-99.99,custom,2013-03-19 02:44:00,
2013-03-18 22:49:00,29.1,27.5,30.29,ESE,119,4.0,-999.0,92,-99.99,,,-99.99,custom,2013-03-19 02:49:00,
2013-03-18 22:54:00,29.3,28.0,30.31,SE,130,3.0,-999.0,94,-99.99,,,-99.99,custom,2013-03-19 02:54:00,
2013-03-18 22:59:00,28.9,28.4,30.29,SSE,151,3.0,-999.0,97,-99.99,,,-99.99,custom,2013-03-19 02:59:00,
2013-03-18 23:04:00,29.5,28.6,30.29,SE,141,2.0,-999.0,95,-99.99,,,-99.99,custom,2013-03-19 03:04:00,
2013-03-18 23:09:00,29.1,28.2,30.34,SE,145,2.0,-999.0,96,-99.99,,,-99.99,custom,2013-03-19 03:09:00,
2013-03-18 23:14:00,29.5,27.7,30.29,SE,134,3.0,-999.0,92,-99.99,,,-99.99,custom,2013-03-19 03:14:00,
2013-03-18 23:19:00,29.5,28.6,30.30,SSE,152,3.0,-999.0,96,-99.99,,,-99.99,custom,2013-03-19 03:19:00,
2013-03-18 23:24:00,29.1,28.2,30.30,SE,132,2.0,-999.0,96,-99.99,,,-99.99,custom,2013-03-19 03:24:00,
2013-03-18 23:29:00,28.9,27.7,30.28,ESE,107,3.0,-999.0,94,-99.99,,,-99.99,custom,2013-03-19 03:29:00,
2013-03-18 23:34:00,29.1,28.9,30.27,ESE,113,2.0,-999.0,99,-99.99,,,-99.99,custom,2013-03-19 03:34:00,
2013-03-18 23:39:00,29.3,29.1,30.27,East,99,2.0,-999.0,99,-99.99,,,-99.99,custom,2013-03-19 03:39:00,
2013-03-18 23:44:00,29.5,28.9,30.27,ESE,107,3.0,-999.0,97,-99.99,,,-99.99,custom,2013-03-19 03:44:00,
2013-03-18 23:49:00,29.1,28.2,30.27,SE,127,1.0,-999.0,95,-99.99,,,-99.99,custom,2013-03-19 03:49:00,
2013-03-18 23:54:00,28.9,27.7,30.25,ESE,115,3.0,-999.0,94,-99.99,,,-99.99,custom,2013-03-19 03:54:00,
2013-03-18 23:59:00,28.8,27.9,30.25,ESE,115,5.0,-999.0,95,-99.99,,,-99.99,custom,2013-03-19 03:59:00,